Year,Month,Day,Hour,Minute,Value (Times are PST for temperature in C)
2005,05,25,00,00,9.70
2005,05,25,00,01,9.70
2005,05,25,00,02,9.70
2005,05,25,00,03,9.70
2005,05,25,00,04,9.70
2005,05,25,00,05,9.70
2005,05,25,00,06,9.70
2005,05,25,00,07,9.70
2005,05,25,00,08,9.70
2005,05,25,00,09,9.70
2005,05,25,00,10,9.70
2005,05,25,00,11,9.70
2005,05,25,00,12,9.70
2005,05,25,00,13,9.70
2005,05,25,00,17,9.60
2005,05,25,00,21,9.70
2005,05,25,00,23,9.70
2005,05,25,00,27,9.70
2005,05,25,00,29,9.70
2005,05,25,00,30,9.70
2005,05,25,00,32,9.70
2005,05,25,00,33,9.80
2005,05,25,00,34,9.80
2005,05,25,00,35,9.80
2005,05,25,00,36,9.80
2005,05,25,00,37,9.80
2005,05,25,00,38,9.80
2005,05,25,00,39,9.80
2005,05,25,00,40,9.70
2005,05,25,00,41,9.70
2005,05,25,00,42,9.70
2005,05,25,00,43,9.70
2005,05,25,00,44,9.70
2005,05,25,00,45,9.60
2005,05,25,00,46,9.60
2005,05,25,00,47,9.60
2005,05,25,00,48,9.50
2005,05,25,00,49,9.50
2005,05,25,00,50,9.40
2005,05,25,00,51,9.40
2005,05,25,00,52,9.40
2005,05,25,00,53,9.30
2005,05,25,00,54,9.30
2005,05,25,00,55,9.20
2005,05,25,00,56,9.20
2005,05,25,00,57,9.20
2005,05,25,00,58,9.10
2005,05,25,00,59,9.10
2005,05,25,01,00,9.10
2005,05,25,01,01,9.00
2005,05,25,01,02,9.00
2005,05,25,01,03,9.00
2005,05,25,01,04,9.00
2005,05,25,01,05,9.00
2005,05,25,01,06,9.00
2005,05,25,01,07,8.90
2005,05,25,01,08,8.90
2005,05,25,01,09,8.90
2005,05,25,01,10,8.80
2005,05,25,01,11,8.80
2005,05,25,01,12,8.80
2005,05,25,01,13,8.80
2005,05,25,01,14,8.80
2005,05,25,01,15,8.80
2005,05,25,01,16,8.80
2005,05,25,01,17,8.70
2005,05,25,01,18,8.70
2005,05,25,01,19,8.70
2005,05,25,01,20,8.70
2005,05,25,01,21,8.70
2005,05,25,01,22,8.70
2005,05,25,01,23,8.70
2005,05,25,01,24,8.70
2005,05,25,01,25,8.70
2005,05,25,01,26,8.70
2005,05,25,01,27,8.70
2005,05,25,01,28,8.70
2005,05,25,01,29,8.70
2005,05,25,01,30,8.70
2005,05,25,01,31,8.70
2005,05,25,01,32,8.70
2005,05,25,01,33,8.70
2005,05,25,01,34,8.70
2005,05,25,01,35,8.70
2005,05,25,01,36,8.70
2005,05,25,01,37,8.70
2005,05,25,01,38,8.70
2005,05,25,01,39,8.70
2005,05,25,01,40,8.70
2005,05,25,01,41,8.70
2005,05,25,01,42,8.70
2005,05,25,01,43,8.70
2005,05,25,01,44,8.70
2005,05,25,01,45,8.70
2005,05,25,01,46,8.80
2005,05,25,01,47,8.80
2005,05,25,01,48,8.80
2005,05,25,01,49,8.80
2005,05,25,01,50,8.80
2005,05,25,01,51,8.80
2005,05,25,01,52,8.70
2005,05,25,01,53,8.70
2005,05,25,01,54,8.70
2005,05,25,01,55,8.80
2005,05,25,01,56,8.80
2005,05,25,01,57,8.90
2005,05,25,01,58,8.90
2005,05,25,01,59,8.80
2005,05,25,02,00,8.80
2005,05,25,02,01,8.70
2005,05,25,02,02,8.70
2005,05,25,02,03,8.70
2005,05,25,02,04,8.70
2005,05,25,02,05,8.70
2005,05,25,02,06,8.70
2005,05,25,02,07,8.70
2005,05,25,02,08,8.70
2005,05,25,02,09,8.70
2005,05,25,02,10,8.70
2005,05,25,02,11,8.70
2005,05,25,02,12,8.70
2005,05,25,02,13,8.70
2005,05,25,02,14,8.70
2005,05,25,02,15,8.70
2005,05,25,02,16,8.70
2005,05,25,02,17,8.70
2005,05,25,02,18,8.70
2005,05,25,02,19,8.70
2005,05,25,02,20,8.70
2005,05,25,02,21,8.70
2005,05,25,02,22,8.70
2005,05,25,02,23,8.70
2005,05,25,02,24,8.70
2005,05,25,02,25,8.70
2005,05,25,02,26,8.60
2005,05,25,02,27,8.60
2005,05,25,02,28,8.60
2005,05,25,02,29,8.60
2005,05,25,02,30,8.50
2005,05,25,02,31,8.50
2005,05,25,02,32,8.50
2005,05,25,02,33,8.40
2005,05,25,02,34,8.40
2005,05,25,02,35,8.40
2005,05,25,02,36,8.40
2005,05,25,02,37,8.40
2005,05,25,02,38,8.40
2005,05,25,02,39,8.30
2005,05,25,02,40,8.30
2005,05,25,02,41,8.30
2005,05,25,02,42,8.30
2005,05,25,02,43,8.30
2005,05,25,02,44,8.20
2005,05,25,02,45,8.20
2005,05,25,02,46,8.20
2005,05,25,02,47,8.20
2005,05,25,02,48,8.20
2005,05,25,02,49,8.20
2005,05,25,02,50,8.20
2005,05,25,02,51,8.20
2005,05,25,02,52,8.20
2005,05,25,02,53,8.20
2005,05,25,02,54,8.20
2005,05,25,02,55,8.20
2005,05,25,02,56,8.30
2005,05,25,02,57,8.30
2005,05,25,02,58,8.30
2005,05,25,02,59,8.30
2005,05,25,03,00,8.30
2005,05,25,03,01,8.30
2005,05,25,03,02,8.30
2005,05,25,03,03,8.30
2005,05,25,03,04,8.20
2005,05,25,03,05,8.20
2005,05,25,03,06,8.20
2005,05,25,03,07,8.20
2005,05,25,03,08,8.20
2005,05,25,03,09,8.20
2005,05,25,03,10,8.20
2005,05,25,03,11,8.20
2005,05,25,03,12,8.10
2005,05,25,03,13,8.10
2005,05,25,03,14,8.10
2005,05,25,03,15,8.10
2005,05,25,03,16,8.10
2005,05,25,03,17,8.10
2005,05,25,03,18,8.10
2005,05,25,03,19,8.20
2005,05,25,03,20,8.20
2005,05,25,03,21,8.20
2005,05,25,03,22,8.20
2005,05,25,03,23,8.20
2005,05,25,03,24,8.20
2005,05,25,03,25,8.20
2005,05,25,03,26,8.20
2005,05,25,03,27,8.20
2005,05,25,03,28,8.30
2005,05,25,03,29,8.30
2005,05,25,03,30,8.30
2005,05,25,03,31,8.30
2005,05,25,03,32,8.30
2005,05,25,03,33,8.40
2005,05,25,03,34,8.40
2005,05,25,03,35,8.40
2005,05,25,03,36,8.40
2005,05,25,03,37,8.50
2005,05,25,03,38,8.50
2005,05,25,03,39,8.50
2005,05,25,03,40,8.50
2005,05,25,03,41,8.60
2005,05,25,03,42,8.60
2005,05,25,03,43,8.60
2005,05,25,03,44,8.60
2005,05,25,03,45,8.70
2005,05,25,03,46,8.70
2005,05,25,03,47,8.70
2005,05,25,03,48,8.70
2005,05,25,03,49,8.70
2005,05,25,03,50,8.70
2005,05,25,03,51,8.70
2005,05,25,03,52,8.80
2005,05,25,03,53,8.80
2005,05,25,03,54,8.80
2005,05,25,03,55,8.80
2005,05,25,03,56,8.80
2005,05,25,03,57,8.80
2005,05,25,03,58,8.80
2005,05,25,03,59,8.80
2005,05,25,04,00,8.80
2005,05,25,04,01,8.80
2005,05,25,04,02,8.80
2005,05,25,04,03,8.80
2005,05,25,04,04,8.80
2005,05,25,04,05,8.80
2005,05,25,04,06,8.80
2005,05,25,04,07,8.70
2005,05,25,04,08,8.70
2005,05,25,04,09,8.70
2005,05,25,04,10,8.70
2005,05,25,04,11,8.70
2005,05,25,04,12,8.70
2005,05,25,04,13,8.70
2005,05,25,04,14,8.70
2005,05,25,04,15,8.70
2005,05,25,04,16,8.70
2005,05,25,04,17,8.70
2005,05,25,04,18,8.70
2005,05,25,04,19,8.70
2005,05,25,04,20,8.70
2005,05,25,04,21,8.70
2005,05,25,04,22,8.60
2005,05,25,04,23,8.60
2005,05,25,04,24,8.60
2005,05,25,04,25,8.60
2005,05,25,04,26,8.60
2005,05,25,04,27,8.50
2005,05,25,04,28,8.50
2005,05,25,04,29,8.50
2005,05,25,04,30,8.50
2005,05,25,04,31,8.50
2005,05,25,04,32,8.40
2005,05,25,04,33,8.40
2005,05,25,04,34,8.40
2005,05,25,04,35,8.40
2005,05,25,04,36,8.40
2005,05,25,04,37,8.40
2005,05,25,04,38,8.40
2005,05,25,04,39,8.40
2005,05,25,04,40,8.40
2005,05,25,04,41,8.50
2005,05,25,04,42,8.50
2005,05,25,04,43,8.50
2005,05,25,04,44,8.50
2005,05,25,04,45,8.50
2005,05,25,04,46,8.50
2005,05,25,04,47,8.60
2005,05,25,04,48,8.50
2005,05,25,04,49,8.50
2005,05,25,04,50,8.50
2005,05,25,04,51,8.50
2005,05,25,04,52,8.50
2005,05,25,04,53,8.50
2005,05,25,04,54,8.50
2005,05,25,04,55,8.40
2005,05,25,04,56,8.40
2005,05,25,04,57,8.30
2005,05,25,04,58,8.30
2005,05,25,04,59,8.30
2005,05,25,05,00,8.20
2005,05,25,05,01,8.20
2005,05,25,05,02,8.20
2005,05,25,05,03,8.00
2005,05,25,05,04,7.90
2005,05,25,05,05,7.80
2005,05,25,05,06,7.70
2005,05,25,05,07,7.70
2005,05,25,05,08,7.60
2005,05,25,05,09,7.50
2005,05,25,05,10,7.30
2005,05,25,05,11,7.20
2005,05,25,05,12,7.10
2005,05,25,05,13,7.00
2005,05,25,05,14,6.90
2005,05,25,05,15,6.80
2005,05,25,05,16,6.80
2005,05,25,05,17,6.80
2005,05,25,05,18,6.70
2005,05,25,05,19,6.60
2005,05,25,05,20,6.60
2005,05,25,05,21,6.60
2005,05,25,05,22,6.60
2005,05,25,05,23,6.60
2005,05,25,05,24,6.60
2005,05,25,05,25,6.50
2005,05,25,05,26,6.50
2005,05,25,05,27,6.60
2005,05,25,05,28,6.60
2005,05,25,05,29,6.60
2005,05,25,05,30,6.60
2005,05,25,05,31,6.70
2005,05,25,05,32,6.80
2005,05,25,05,33,6.80
2005,05,25,05,34,6.80
2005,05,25,05,35,6.80
2005,05,25,05,36,6.80
2005,05,25,05,37,6.80
2005,05,25,05,38,6.80
2005,05,25,05,39,6.90
2005,05,25,05,40,7.00
2005,05,25,05,41,7.10
2005,05,25,05,42,7.10
2005,05,25,05,43,7.20
2005,05,25,05,44,7.20
2005,05,25,05,45,7.20
2005,05,25,05,46,7.20
2005,05,25,05,47,7.20
2005,05,25,05,48,7.20
2005,05,25,05,49,7.20
2005,05,25,05,50,7.30
2005,05,25,05,51,7.30
2005,05,25,05,52,7.30
2005,05,25,05,53,7.40
2005,05,25,05,54,7.40
2005,05,25,05,55,7.50
2005,05,25,05,56,7.60
2005,05,25,05,57,7.70
2005,05,25,05,58,7.80
2005,05,25,05,59,7.90
2005,05,25,06,00,8.00
2005,05,25,06,01,8.10
2005,05,25,06,02,8.20
2005,05,25,06,03,8.20
2005,05,25,06,04,8.40
2005,05,25,06,05,8.50
2005,05,25,06,06,8.60
2005,05,25,06,07,8.70
2005,05,25,06,08,8.80
2005,05,25,06,09,8.90
2005,05,25,06,10,9.00
2005,05,25,06,11,9.10
2005,05,25,06,12,9.10
2005,05,25,06,13,9.30
2005,05,25,06,14,9.50
2005,05,25,06,15,9.60
2005,05,25,06,16,9.70
2005,05,25,06,17,9.80
2005,05,25,06,18,9.90
2005,05,25,06,19,10.00
2005,05,25,06,20,10.10
2005,05,25,06,21,10.20
2005,05,25,06,22,10.20
2005,05,25,06,23,10.20
2005,05,25,06,24,10.30
2005,05,25,06,25,10.40
2005,05,25,06,26,10.50
2005,05,25,06,27,10.60
2005,05,25,06,28,10.80
2005,05,25,06,29,10.90
2005,05,25,06,30,10.90
2005,05,25,06,31,11.10
2005,05,25,06,32,11.10
2005,05,25,06,33,11.20
2005,05,25,06,34,11.30
2005,05,25,06,35,11.30
2005,05,25,06,36,11.40
2005,05,25,06,37,11.50
2005,05,25,06,38,11.60
2005,05,25,06,39,11.60
2005,05,25,06,40,11.70
2005,05,25,06,41,11.90
2005,05,25,06,42,12.00
2005,05,25,06,43,12.00
2005,05,25,06,44,12.00
2005,05,25,06,45,12.10
2005,05,25,06,46,12.20
2005,05,25,06,47,12.20
2005,05,25,06,48,12.30
2005,05,25,06,49,12.30
2005,05,25,06,50,12.40
2005,05,25,06,51,12.40
2005,05,25,06,52,12.50
2005,05,25,06,53,12.50
2005,05,25,06,54,12.60
2005,05,25,06,55,12.70
2005,05,25,06,56,12.70
2005,05,25,06,57,12.80
2005,05,25,06,58,12.80
2005,05,25,06,59,12.90
2005,05,25,07,00,12.90
2005,05,25,07,01,12.90
2005,05,25,07,02,13.00
2005,05,25,07,03,13.00
2005,05,25,07,04,13.10
2005,05,25,07,05,13.10
2005,05,25,07,06,13.10
2005,05,25,07,07,13.20
2005,05,25,07,08,13.30
2005,05,25,07,09,13.30
2005,05,25,07,10,13.40
2005,05,25,07,11,13.50
2005,05,25,07,12,13.60
2005,05,25,07,13,13.70
2005,05,25,07,14,13.70
2005,05,25,07,15,13.70
2005,05,25,07,16,13.70
2005,05,25,07,17,13.70
2005,05,25,07,18,13.80
2005,05,25,07,19,13.80
2005,05,25,07,20,13.80
2005,05,25,07,21,13.80
2005,05,25,07,22,13.90
2005,05,25,07,23,14.00
2005,05,25,07,24,14.00
2005,05,25,07,25,14.00
2005,05,25,07,26,13.90
2005,05,25,07,27,13.90
2005,05,25,07,28,14.00
2005,05,25,07,29,14.00
2005,05,25,07,30,14.00
2005,05,25,07,31,14.00
2005,05,25,07,32,13.90
2005,05,25,07,33,14.00
2005,05,25,07,34,14.00
2005,05,25,07,35,14.00
2005,05,25,07,36,14.00
2005,05,25,07,37,14.00
2005,05,25,07,38,13.90
2005,05,25,07,39,13.90
2005,05,25,07,40,13.90
2005,05,25,07,41,13.90
2005,05,25,07,42,13.90
2005,05,25,07,43,13.90
2005,05,25,07,44,13.90
2005,05,25,07,45,14.00
2005,05,25,07,46,14.00
2005,05,25,07,47,14.00
2005,05,25,07,48,14.00
2005,05,25,07,49,14.10
2005,05,25,07,50,14.20
2005,05,25,07,51,14.20
2005,05,25,07,52,14.30
2005,05,25,07,53,14.30
2005,05,25,07,54,14.40
2005,05,25,07,55,14.40
2005,05,25,07,56,14.50
2005,05,25,07,57,14.60
2005,05,25,07,58,14.60
2005,05,25,07,59,14.70
2005,05,25,08,00,14.70
2005,05,25,08,01,14.70
2005,05,25,08,02,14.70
2005,05,25,08,03,14.60
2005,05,25,08,04,14.60
2005,05,25,08,05,14.60
2005,05,25,08,06,14.60
2005,05,25,08,07,14.60
2005,05,25,08,08,14.60
2005,05,25,08,09,14.60
2005,05,25,08,10,14.70
2005,05,25,08,11,14.70
2005,05,25,08,12,14.80
2005,05,25,08,13,14.80
2005,05,25,08,14,14.90
2005,05,25,08,15,15.00
2005,05,25,08,16,15.10
2005,05,25,08,17,15.10
2005,05,25,08,18,15.10
2005,05,25,08,19,15.10
2005,05,25,08,20,15.10
2005,05,25,08,21,15.20
2005,05,25,08,22,15.20
2005,05,25,08,23,15.30
2005,05,25,08,24,15.30
2005,05,25,08,25,15.50
2005,05,25,08,26,15.60
2005,05,25,08,27,15.70
2005,05,25,08,28,15.80
2005,05,25,08,29,15.80
2005,05,25,08,30,15.80
2005,05,25,08,31,15.90
2005,05,25,08,32,16.00
2005,05,25,08,33,16.00
2005,05,25,08,34,15.90
2005,05,25,08,35,15.90
2005,05,25,08,36,15.90
2005,05,25,08,37,15.90
2005,05,25,08,38,15.90
2005,05,25,08,39,15.90
2005,05,25,08,40,15.90
2005,05,25,08,41,15.80
2005,05,25,08,42,15.80
2005,05,25,08,43,15.90
2005,05,25,08,44,15.90
2005,05,25,08,45,15.90
2005,05,25,08,46,15.90
2005,05,25,08,47,15.80
2005,05,25,08,48,15.90
2005,05,25,08,49,15.90
2005,05,25,08,50,15.90
2005,05,25,08,51,16.00
2005,05,25,08,52,16.00
2005,05,25,08,53,15.80
2005,05,25,08,54,15.80
2005,05,25,08,55,15.80
2005,05,25,08,56,15.80
2005,05,25,08,57,15.80
2005,05,25,08,58,15.90
2005,05,25,08,59,16.00
2005,05,25,09,00,16.10
2005,05,25,09,01,16.10
2005,05,25,09,02,16.10
2005,05,25,09,03,16.20
2005,05,25,09,04,16.30
2005,05,25,09,05,16.40
2005,05,25,09,06,16.40
2005,05,25,09,07,16.40
2005,05,25,09,08,16.40
2005,05,25,09,09,16.40
2005,05,25,09,10,16.40
2005,05,25,09,11,16.50
2005,05,25,09,12,16.60
2005,05,25,09,13,16.40
2005,05,25,09,14,16.40
2005,05,25,09,15,16.30
2005,05,25,09,16,16.30
2005,05,25,09,17,16.30
2005,05,25,09,18,16.40
2005,05,25,09,19,16.70
2005,05,25,09,20,16.70
2005,05,25,09,21,16.80
2005,05,25,09,22,16.80
2005,05,25,09,23,16.70
2005,05,25,09,24,16.70
2005,05,25,09,25,16.60
2005,05,25,09,26,16.70
2005,05,25,09,27,16.70
2005,05,25,09,28,16.60
2005,05,25,09,29,16.40
2005,05,25,09,30,16.40
2005,05,25,09,31,16.40
2005,05,25,09,32,16.40
2005,05,25,09,33,16.40
2005,05,25,09,34,16.50
2005,05,25,09,35,16.60
2005,05,25,09,36,16.60
2005,05,25,09,37,16.70
2005,05,25,09,38,16.80
2005,05,25,09,39,16.90
2005,05,25,09,40,17.00
2005,05,25,09,41,17.10
2005,05,25,09,42,17.10
2005,05,25,09,43,17.10
2005,05,25,09,44,17.10
2005,05,25,09,45,16.90
2005,05,25,09,46,16.80
2005,05,25,09,47,16.90
2005,05,25,09,48,16.80
2005,05,25,09,49,16.90
2005,05,25,09,50,16.90
2005,05,25,09,51,17.00
2005,05,25,09,52,16.90
2005,05,25,09,53,16.90
2005,05,25,09,54,16.90
2005,05,25,09,55,16.90
2005,05,25,09,56,17.00
2005,05,25,09,57,16.90
2005,05,25,09,58,16.90
2005,05,25,09,59,16.90
2005,05,25,10,00,16.80
2005,05,25,10,01,16.80
2005,05,25,10,02,16.70
2005,05,25,10,03,16.80
2005,05,25,10,04,16.90
2005,05,25,10,05,17.10
2005,05,25,10,06,17.00
2005,05,25,10,07,17.10
2005,05,25,10,08,17.10
2005,05,25,10,09,17.10
2005,05,25,10,10,17.20
2005,05,25,10,11,17.20
2005,05,25,10,12,17.20
2005,05,25,10,13,17.10
2005,05,25,10,14,17.20
2005,05,25,10,15,17.20
2005,05,25,10,16,17.20
2005,05,25,10,17,17.20
2005,05,25,10,18,17.20
2005,05,25,10,19,17.20
2005,05,25,10,20,17.40
2005,05,25,10,21,17.40
2005,05,25,10,22,17.40
2005,05,25,10,23,17.40
2005,05,25,10,24,17.50
2005,05,25,10,25,17.60
2005,05,25,10,26,17.70
2005,05,25,10,27,17.70
2005,05,25,10,28,17.60
2005,05,25,10,29,17.50
2005,05,25,10,30,17.50
2005,05,25,10,31,17.60
2005,05,25,10,32,17.60
2005,05,25,10,33,17.50
2005,05,25,10,34,17.40
2005,05,25,10,35,17.50
2005,05,25,10,36,17.50
2005,05,25,10,37,17.50
2005,05,25,10,38,17.50
2005,05,25,10,39,17.60
2005,05,25,10,40,17.70
2005,05,25,10,41,17.70
2005,05,25,10,42,17.90
2005,05,25,10,43,17.90
2005,05,25,10,44,18.00
2005,05,25,10,45,18.20
2005,05,25,10,46,18.30
2005,05,25,10,47,18.40
2005,05,25,10,48,18.50
2005,05,25,10,49,18.60
2005,05,25,10,50,18.70
2005,05,25,10,51,18.50
2005,05,25,10,52,18.40
2005,05,25,10,53,18.40
2005,05,25,10,54,18.30
2005,05,25,10,55,18.20
2005,05,25,10,56,18.30
2005,05,25,10,57,18.30
2005,05,25,10,58,18.30
2005,05,25,10,59,18.40
2005,05,25,11,00,18.40
2005,05,25,11,01,18.30
2005,05,25,11,02,18.20
2005,05,25,11,03,18.10
2005,05,25,11,04,18.10
2005,05,25,11,05,18.10
2005,05,25,11,06,18.20
2005,05,25,11,07,18.20
2005,05,25,11,08,18.30
2005,05,25,11,09,18.30
2005,05,25,11,10,18.20
2005,05,25,11,11,18.40
2005,05,25,11,12,18.60
2005,05,25,11,13,18.70
2005,05,25,11,14,18.80
2005,05,25,11,15,18.90
2005,05,25,11,16,19.00
2005,05,25,11,17,19.10
2005,05,25,11,18,19.10
2005,05,25,11,19,19.10
2005,05,25,11,20,19.10
2005,05,25,11,21,19.10
2005,05,25,11,22,18.90
2005,05,25,11,23,18.90
2005,05,25,11,24,18.80
2005,05,25,11,25,18.70
2005,05,25,11,26,18.60
2005,05,25,11,27,18.60
2005,05,25,11,28,18.60
2005,05,25,11,29,18.60
2005,05,25,11,30,18.50
2005,05,25,11,31,18.40
2005,05,25,11,32,18.40
2005,05,25,11,33,18.30
2005,05,25,11,34,18.30
2005,05,25,11,35,18.30
2005,05,25,11,36,18.40
2005,05,25,11,37,18.50
2005,05,25,11,38,18.50
2005,05,25,11,39,18.30
2005,05,25,11,40,18.20
2005,05,25,11,41,18.40
2005,05,25,11,42,18.50
2005,05,25,11,43,18.70
2005,05,25,11,44,18.70
2005,05,25,11,45,18.70
2005,05,25,11,46,18.80
2005,05,25,11,47,18.90
2005,05,25,11,48,18.90
2005,05,25,11,49,18.80
2005,05,25,11,50,18.80
2005,05,25,11,51,18.80
2005,05,25,11,52,18.80
2005,05,25,11,53,19.00
2005,05,25,11,54,19.20
2005,05,25,11,55,19.30
2005,05,25,11,56,19.30
2005,05,25,11,57,19.20
2005,05,25,11,58,19.20
2005,05,25,11,59,19.10
2005,05,25,12,00,19.10
2005,05,25,12,01,19.10
2005,05,25,12,02,19.10
2005,05,25,12,03,19.40
2005,05,25,12,06,20.00
2005,05,25,12,07,20.20
2005,05,25,12,08,20.30
2005,05,25,12,09,20.30
2005,05,25,12,10,20.10
2005,05,25,12,11,19.90
2005,05,25,12,12,19.70
2005,05,25,12,13,19.50
2005,05,25,12,14,19.50
2005,05,25,12,15,19.50
2005,05,25,12,16,19.60
2005,05,25,12,17,19.80
2005,05,25,12,18,19.90
2005,05,25,12,19,19.90
2005,05,25,12,20,20.10
2005,05,25,12,21,20.20
2005,05,25,12,22,20.20
2005,05,25,12,23,20.10
2005,05,25,12,24,20.00
2005,05,25,12,25,19.90
2005,05,25,12,26,19.90
2005,05,25,12,27,20.10
2005,05,25,12,28,20.20
2005,05,25,12,29,20.10
2005,05,25,12,30,20.10
2005,05,25,12,31,20.00
2005,05,25,12,32,19.90
2005,05,25,12,33,19.80
2005,05,25,12,34,19.80
2005,05,25,12,35,19.90
2005,05,25,12,36,20.00
2005,05,25,12,37,20.10
2005,05,25,12,38,20.10
2005,05,25,12,39,20.10
2005,05,25,12,40,20.00
2005,05,25,12,41,20.10
2005,05,25,12,42,20.10
2005,05,25,12,43,20.10
2005,05,25,12,44,20.10
2005,05,25,12,45,20.20
2005,05,25,12,46,20.20
2005,05,25,12,47,20.40
2005,05,25,12,48,20.50
2005,05,25,12,49,20.60
2005,05,25,12,50,20.50
2005,05,25,12,51,20.30
2005,05,25,12,52,20.30
2005,05,25,12,53,20.30
2005,05,25,12,54,20.20
2005,05,25,12,55,20.20
2005,05,25,12,56,20.20
2005,05,25,12,57,20.20
2005,05,25,12,58,20.20
2005,05,25,12,59,20.30
2005,05,25,13,00,20.40
2005,05,25,13,01,20.50
2005,05,25,13,02,20.60
2005,05,25,13,03,20.50
2005,05,25,13,04,20.50
2005,05,25,13,05,20.60
2005,05,25,13,06,20.50
2005,05,25,13,07,20.40
2005,05,25,13,08,20.50
2005,05,25,13,09,20.60
2005,05,25,13,10,20.60
2005,05,25,13,11,20.70
2005,05,25,13,12,20.70
2005,05,25,13,13,20.60
2005,05,25,13,14,20.60
2005,05,25,13,15,20.70
2005,05,25,13,16,20.80
2005,05,25,13,17,20.90
2005,05,25,13,18,20.80
2005,05,25,13,19,20.80
2005,05,25,13,20,21.00
2005,05,25,13,21,21.10
2005,05,25,13,22,21.20
2005,05,25,13,23,21.20
2005,05,25,13,24,21.40
2005,05,25,13,25,21.40
2005,05,25,13,26,21.30
2005,05,25,13,27,21.30
2005,05,25,13,28,21.30
2005,05,25,13,29,21.30
2005,05,25,13,30,21.20
2005,05,25,13,31,21.20
2005,05,25,13,32,21.30
2005,05,25,13,33,21.50
2005,05,25,13,34,21.60
2005,05,25,13,35,21.50
2005,05,25,13,36,21.40
2005,05,25,13,37,21.30
2005,05,25,13,38,21.20
2005,05,25,13,39,21.10
2005,05,25,13,40,21.10
2005,05,25,13,41,21.00
2005,05,25,13,42,20.80
2005,05,25,13,43,20.80
2005,05,25,13,44,20.90
2005,05,25,13,45,21.00
2005,05,25,13,46,21.20
2005,05,25,13,47,21.30
2005,05,25,13,48,21.30
2005,05,25,13,49,21.30
2005,05,25,13,50,21.50
2005,05,25,13,51,21.90
2005,05,25,13,52,21.80
2005,05,25,13,53,21.70
2005,05,25,13,54,21.60
2005,05,25,13,55,21.60
2005,05,25,13,56,21.60
2005,05,25,13,57,21.60
2005,05,25,13,58,21.60
2005,05,25,13,59,21.50
2005,05,25,14,00,21.60
2005,05,25,14,01,21.80
2005,05,25,14,02,21.90
2005,05,25,14,03,21.90
2005,05,25,14,04,21.90
2005,05,25,14,05,21.80
2005,05,25,14,06,21.70
2005,05,25,14,07,21.60
2005,05,25,14,08,21.60
2005,05,25,14,09,21.60
2005,05,25,14,10,21.40
2005,05,25,14,11,21.40
2005,05,25,14,12,21.60
2005,05,25,14,13,21.60
2005,05,25,14,14,21.60
2005,05,25,14,15,21.50
2005,05,25,14,16,21.60
2005,05,25,14,17,21.50
2005,05,25,14,18,21.50
2005,05,25,14,19,21.60
2005,05,25,14,20,21.60
2005,05,25,14,21,21.50
2005,05,25,14,22,21.50
2005,05,25,14,23,21.50
2005,05,25,14,24,21.40
2005,05,25,14,25,21.40
2005,05,25,14,26,21.30
2005,05,25,14,27,21.30
2005,05,25,14,28,21.20
2005,05,25,14,29,21.10
2005,05,25,14,30,21.20
2005,05,25,14,31,21.10
2005,05,25,14,32,21.10
2005,05,25,14,33,21.20
2005,05,25,14,34,21.40
2005,05,25,14,35,21.40
2005,05,25,14,36,21.40
2005,05,25,14,37,21.40
2005,05,25,14,38,21.50
2005,05,25,14,39,21.60
2005,05,25,14,40,21.60
2005,05,25,14,41,21.70
2005,05,25,14,42,21.80
2005,05,25,14,43,21.80
2005,05,25,14,44,21.70
2005,05,25,14,45,21.70
2005,05,25,14,46,21.70
2005,05,25,14,47,21.60
2005,05,25,14,48,21.60
2005,05,25,14,49,21.80
2005,05,25,14,50,22.00
2005,05,25,14,51,22.10
2005,05,25,14,52,22.20
2005,05,25,14,53,22.30
2005,05,25,14,54,22.30
2005,05,25,14,55,22.30
2005,05,25,14,56,22.20
2005,05,25,14,57,22.00
2005,05,25,14,58,22.10
2005,05,25,14,59,22.20
2005,05,25,15,00,22.30
2005,05,25,15,01,22.20
2005,05,25,15,02,22.20
2005,05,25,15,03,22.30
2005,05,25,15,04,22.30
2005,05,25,15,05,22.30
2005,05,25,15,06,22.30
2005,05,25,15,07,22.30
2005,05,25,15,08,22.40
2005,05,25,15,09,22.40
2005,05,25,15,10,22.40
2005,05,25,15,11,22.40
2005,05,25,15,12,22.50
2005,05,25,15,13,22.70
2005,05,25,15,14,22.90
2005,05,25,15,15,22.90
2005,05,25,15,16,22.70
2005,05,25,15,17,22.60
2005,05,25,15,18,22.70
2005,05,25,15,19,22.60
2005,05,25,15,20,22.60
2005,05,25,15,21,22.60
2005,05,25,15,22,22.80
2005,05,25,15,23,22.80
2005,05,25,15,24,22.80
2005,05,25,15,25,22.70
2005,05,25,15,26,22.70
2005,05,25,15,27,22.80
2005,05,25,15,28,22.80
2005,05,25,15,29,22.80
2005,05,25,15,30,22.80
2005,05,25,15,31,22.80
2005,05,25,15,32,22.60
2005,05,25,15,33,22.60
2005,05,25,15,34,22.70
2005,05,25,15,35,22.70
2005,05,25,15,36,22.70
2005,05,25,15,37,22.60
2005,05,25,15,38,22.50
2005,05,25,15,39,22.60
2005,05,25,15,40,22.60
2005,05,25,15,41,22.60
2005,05,25,15,42,22.60
2005,05,25,15,43,22.70
2005,05,25,15,44,22.90
2005,05,25,15,45,22.90
2005,05,25,15,46,22.90
2005,05,25,15,47,22.80
2005,05,25,15,48,22.70
2005,05,25,15,49,22.60
2005,05,25,15,50,22.60
2005,05,25,15,51,22.60
2005,05,25,15,52,22.50
2005,05,25,15,53,22.50
2005,05,25,15,54,22.60
2005,05,25,15,55,22.80
2005,05,25,15,56,22.90
2005,05,25,15,57,22.90
2005,05,25,15,58,22.90
2005,05,25,15,59,22.90
2005,05,25,16,00,22.90
2005,05,25,16,01,22.90
2005,05,25,16,02,22.90
2005,05,25,16,03,22.90
2005,05,25,16,04,23.10
2005,05,25,16,05,23.10
2005,05,25,16,06,22.90
2005,05,25,16,07,22.90
2005,05,25,16,08,22.90
2005,05,25,16,09,22.90
2005,05,25,16,10,22.90
2005,05,25,16,11,22.90
2005,05,25,16,12,23.00
2005,05,25,16,13,23.20
2005,05,25,16,14,23.20
2005,05,25,16,15,23.30
2005,05,25,16,16,23.40
2005,05,25,16,17,23.60
2005,05,25,16,18,23.40
2005,05,25,16,19,23.40
2005,05,25,16,20,23.40
2005,05,25,16,21,23.60
2005,05,25,16,22,23.80
2005,05,25,16,23,24.00
2005,05,25,16,24,24.10
2005,05,25,16,25,24.20
2005,05,25,16,26,24.40
2005,05,25,16,27,24.50
2005,05,25,16,28,24.60
2005,05,25,16,29,24.60
2005,05,25,16,30,24.60
2005,05,25,16,31,24.60
2005,05,25,16,32,24.50
2005,05,25,16,33,24.50
2005,05,25,16,34,24.60
2005,05,25,16,35,24.60
2005,05,25,16,36,24.60
2005,05,25,16,37,24.50
2005,05,25,16,38,24.50
2005,05,25,16,39,24.40
2005,05,25,16,40,24.40
2005,05,25,16,41,24.40
2005,05,25,16,42,24.40
2005,05,25,16,43,24.40
2005,05,25,16,44,24.40
2005,05,25,16,45,24.40
2005,05,25,16,46,24.40
2005,05,25,16,47,24.40
2005,05,25,16,48,24.40
2005,05,25,16,49,24.40
2005,05,25,16,50,24.50
2005,05,25,16,51,24.40
2005,05,25,16,52,24.50
2005,05,25,16,53,24.50
2005,05,25,16,54,24.50
2005,05,25,16,55,24.50
2005,05,25,16,56,24.60
2005,05,25,16,57,24.70
2005,05,25,16,58,24.80
2005,05,25,16,59,24.90
2005,05,25,17,00,24.90
2005,05,25,17,01,24.80
2005,05,25,17,02,24.80
2005,05,25,17,03,24.70
2005,05,25,17,04,24.60
2005,05,25,17,05,24.60
2005,05,25,17,06,24.60
2005,05,25,17,07,24.60
2005,05,25,17,08,24.60
2005,05,25,17,09,24.50
2005,05,25,17,10,24.60
2005,05,25,17,11,24.60
2005,05,25,17,12,24.50
2005,05,25,17,13,24.50
2005,05,25,17,14,24.50
2005,05,25,17,15,24.70
2005,05,25,17,16,24.80
2005,05,25,17,17,24.80
2005,05,25,17,18,24.80
2005,05,25,17,19,24.80
2005,05,25,17,20,24.70
2005,05,25,17,21,24.60
2005,05,25,17,22,24.60
2005,05,25,17,23,24.70
2005,05,25,17,24,24.80
2005,05,25,17,25,24.80
2005,05,25,17,26,24.70
2005,05,25,17,27,24.60
2005,05,25,17,28,24.50
2005,05,25,17,29,24.50
2005,05,25,17,30,24.50
2005,05,25,17,31,24.60
2005,05,25,17,32,24.60
2005,05,25,17,33,24.70
2005,05,25,17,34,24.70
2005,05,25,17,35,24.50
2005,05,25,17,36,24.50
2005,05,25,17,37,24.50
2005,05,25,17,38,24.60
2005,05,25,17,39,24.70
2005,05,25,17,40,24.70
2005,05,25,17,41,24.60
2005,05,25,17,42,24.60
2005,05,25,17,43,24.60
2005,05,25,17,44,24.60
2005,05,25,17,45,24.50
2005,05,25,17,46,24.50
2005,05,25,17,47,24.50
2005,05,25,17,48,24.50
2005,05,25,17,49,24.60